JCSAT-2B

Last updated on Sun Apr 05 2026 00:02:51 GMT+0000 (Coordinated Universal Time)

1 41471U 16028A 26093.84003152 .00000000 00000+0 00000+0 0 9995 2 41471 0.0190 195.8619 0000775 200.2626 252.4609 1.00269899 36387
UTC large
Height (km)
Speed (km/s)
/
Latitude / Longitude
Inclination (degrees)
Orbital Period (minutes)
Azimuth
Elevation
Range (km)
Doppler Factor

Next 0 passes for location: London (51.5072 / 0.1276)

Sorry there are no passes over London.